全球卫星定位系统 GPS 31星 (NAVSTAR 31 (USA 90))

导读 | 豆包AI

NAVSTAR 31(又名USA 90)是美国于1993年3月30日发射的GPS导航卫星,隶属于美国国防部开发的NAVSTAR全球定位系统。该系统作为全球首个成熟的空基全天候导航系统,为军民用户提供全球范围的位置、速度与时间精准服务,助力构建覆盖全球的卫星导航星座网络,支撑各类定位、导航与授时应用需求。

Basic Information
目录编号:
22581
目录名称:
NAVSTAR 31 (USA 90)
国际标识:
1993-017A
轨道中心:
EARTH
卫星名称:
GPS 31星
卫星全名:
全球卫星定位系统 GPS 31星 (NAVSTAR 31 (USA 90))
卫星状态:
在轨 (已飞行12082 天)
发射日期:
1993-03-30 UTC
国别 :
美国 (US)
星等 :
--
Orbit Information
数据来源 国际轨道数据 AOE轨道数据
星历时间 2026-04-27T15:51:45+0800
1天前
查看轨道信息
2026-04-28T07:00:00+0800
22小时前
查看轨道信息
半长轴 27638.141km 27638.219km
偏心率 0.0003348 0.0003321
轨道倾角 54.185° 54.185°
近地点辐角 101.184° 101.330°
升交点赤经 299.979° 299.957°
平近点角 63.113° 132.001°
近地点 21250.75km 21250.903km
远地点 21269.258km 21269.261km
周期 762.119分钟 762.123分钟
每日圈数 1.889468 1.88946
Detailed Information
平衡模式:
三轴稳定
覆盖范围:
全球
运营商:
美国太空军
运营商所在国:
美国
制造商(研发单位):
罗克韦尔自动化公司
制造商所在国:
美国
使用方式:
暂无
Satellite Introduction
全球定位系统(英语:Global Positioning System,通常简称GPS),又称全球卫星定位系统,是美国国防部研制,美国太空军运营与维护的中地球轨道卫星导航系统。它可以为地球表面约98%的地区提供准确的定位、测速和高精度的标准时间。全球定位系统可满足位于全球地面任何一处或近地空间的军事用户连续且精确地确定三维位置、三维运动和时间的需求。该系统包括太空中的31颗GPS人造卫星.该卫星已退役。
2D Orbit Map
3D Orbit Map
Orbit Altitude Analysis Chart
Orbit Inclination Analysis Chart
Orbit Comprehensive Analysis Chart
View Comprehensive Chart